[[{"header":{"parameterUnit":"m.s-1","parameterCategory":2,"la1":30.2991,"la2":30.254,"lo1":-89.0895,"lo2":-89.0444,"dy":0.0017,"dx":0.0017,"nx":28,"ny":28,"refTime":"2024-04-30T21:00:00:Z","depth":"0","parameterNumber":2,"parameterNumberName":"U-component_of_CURRENTS"},"data":[0,0,0,0,0,0,0,0,0,0,0,0,0,0,0,0,0,0,0,0,0,0,0,0,0,0,0,0,0,0,0,0,0,0,0,0,0,0,0,0,0,0,0,0,0,0,0,0,0,0,0,0,0,0,0,0,0,0,-0.3249,-0.3249,0,-0.3199,-0.3198,-0.3197,-0.3127,-0.3127,-0.3126,-0.3125,-0.2999,-0.2997,-0.2994,0,0,0,0,0,0,0,0,0,0,0,0,0,-0.3226,-0.3227,-0.3249,-0.3249,-0.3248,-0.3199,-0.3198,-0.3196,-0.3128,-0.3127,-0.3126,-0.3125,-0.3,-0.2997,-0.2994,0,0,0,0,0,0,0,0,0,0,0,0,0,-0.3208,-0.3227,-0.3249,-0.3212,-0.3208,-0.3199,-0.3197,-0.3196,-0.3128,-0.3127,-0.3126,-0.3124,-0.3001,-0.2997,-0.2993,-0.2991,0,0,-0.2981,-0.2979,0,0,0,0,0,0,0,0,-0.3209,-0.3208,-0.3217,-0.3214,-0.321,-0.3172,-0.3144,-0.3125,-0.3128,-0.3153,-0.3125,-0.3124,-0.3054,-0.3046,-0.3033,-0.2985,-0.2979,-0.2981,-0.2978,-0.2977,-0.2976,0,0,0,0,0,0,0,-0.321,-0.321,-0.3224,-0.3217,-0.3213,-0.3177,-0.3174,-0.3139,-0.3105,-0.3151,-0.3147,-0.3149,-0.3051,-0.3037,-0.3029,-0.2978,-0.2981,-0.2977,-0.2975,-0.2973,-0.2861,-0.286,0,0,0,0,0,0,-0.3231,-0.3211,-0.3226,-0.3223,-0.3212,-0.3179,-0.3175,-0.3182,-0.3107,-0.3097,-0.315,-0.3146,-0.3044,-0.3034,-0.3025,-0.2996,-0.2977,-0.2973,-0.2971,-0.2861,-0.2861,-0.286,0,0,0,0,0,0,-0.323,-0.3233,-0.3228,-0.3219,-0.3217,-0.3182,-0.319,-0.3181,-0.3161,-0.3109,-0.3095,-0.3139,-0.3043,-0.303,-0.2968,-0.2991,-0.2971,-0.2968,-0.2862,-0.2861,-0.286,-0.2951,0,0,0,0,0,0,-0.323,-0.3233,-0.3238,-0.3221,-0.3218,-0.321,-0.3191,-0.3181,-0.3167,-0.3161,-0.3094,-0.3082,-0.3041,-0.2974,-0.2964,-0.2985,-0.2964,-0.2863,-0.2862,-0.2861,-0.2949,-0.2954,-0.2957,0,0,0,0,0,-0.323,-0.3237,-0.3239,-0.324,-0.3229,-0.321,-0.3204,-0.3172,-0.3168,-0.3152,-0.3099,-0.3084,-0.296,-0.297,-0.2958,-0.2979,-0.2863,-0.2862,-0.2861,-0.2947,-0.2953,-0.2957,0,0,0,0,0,0,-0.3224,-0.3231,-0.3232,-0.3241,-0.3225,-0.32,-0.3188,-0.3178,-0.3128,-0.3119,-0.3069,-0.3051,-0.3006,-0.2971,-0.2984,-0.2939,-0.2913,-0.2909,-0.2983,-0.2987,-0.2991,-0.3014,-0.2961,0,0,0,0,0,-0.3232,-0.3239,-0.3236,-0.3239,-0.3238,-0.3218,-0.3207,-0.3189,-0.3151,-0.3129,-0.3087,-0.3038,-0.2995,-0.2973,-0.2921,-0.29,-0.2863,-0.2904,-0.2909,-0.2913,-0.292,-0.2891,-0.2895,-0.2856,-0.2856,-0.2856,0,0,-0.323,-0.3237,-0.3239,-0.3239,-0.3227,-0.3224,-0.3206,-0.3191,-0.3186,-0.3124,-0.3091,-0.3045,-0.2987,-0.2953,-0.2933,-0.2928,-0.2897,-0.2911,-0.2916,-0.2921,-0.2891,-0.2895,-0.2899,-0.2855,-0.2855,-0.2855,0,0,-0.3225,-0.3238,-0.324,-0.3233,-0.3226,-0.3222,-0.3223,-0.3201,-0.3184,-0.3149,-0.3108,-0.3075,-0.3005,-0.2981,-0.2958,-0.2956,-0.2914,-0.2939,-0.2992,-0.2965,-0.2969,-0.2972,-0.2907,-0.2904,-0.2952,-0.2952,-0.2952,0,-0.3223,-0.3237,-0.3232,-0.3232,-0.3238,-0.3228,-0.3232,-0.3216,-0.3173,-0.3163,-0.3141,-0.3065,-0.3025,-0.3006,-0.3005,-0.2973,-0.2929,-0.2986,-0.2974,-0.2977,-0.2978,-0.2911,-0.2907,-0.2956,-0.2956,-0.2955,-0.2955,0,-0.3213,-0.3231,-0.3232,-0.3242,-0.3238,-0.3242,-0.3235,-0.3222,-0.3214,-0.3199,-0.3168,-0.3118,-0.3075,-0.3069,-0.3037,-0.3036,-0.299,-0.298,-0.2973,-0.2989,-0.2915,-0.2909,-0.2962,-0.2961,-0.2959,-0.2958,0,0,-0.3195,-0.3227,-0.3225,-0.3234,-0.3253,-0.3239,-0.325,-0.325,-0.3241,-0.3219,-0.3209,-0.3175,-0.3158,-0.3131,-0.3103,-0.3095,-0.307,-0.3051,-0.3047,-0.3007,-0.2975,-0.2783,-0.2757,-0.306,-0.306,-0.306,-0.2912,0,-0.3196,-0.3217,-0.3231,-0.324,-0.3256,-0.3261,-0.3258,-0.3248,-0.3246,-0.3223,-0.3214,-0.318,-0.318,-0.3159,-0.3159,-0.3079,-0.306,-0.3109,-0.2948,-0.2942,-0.2788,-0.2746,-0.2633,-0.2478,-0.2906,-0.2904,-0.2904,0,-0.3176,-0.3205,-0.3235,-0.325,-0.3251,-0.3246,-0.3249,-0.3243,-0.3231,-0.3219,-0.3224,-0.3203,-0.3192,-0.3185,-0.3106,-0.3132,-0.3064,-0.3015,-0.3008,-0.2796,-0.2739,-0.2533,-0.245,-0.2453,-0.2893,-0.2894,-0.2895,0,-0.3162,-0.3191,-0.3226,-0.3234,-0.3255,-0.3249,-0.3243,-0.3237,-0.3225,-0.322,-0.3197,-0.32,-0.3152,-0.3122,-0.3012,-0.3063,-0.2886,-0.294,-0.2707,-0.2692,-0.2545,-0.2516,-0.2464,-0.2885,-0.2885,-0.2886,-0.2886,0,-0.3169,-0.3182,-0.3212,-0.3229,-0.3222,-0.3227,-0.321,-0.3203,-0.3192,-0.3145,-0.3188,-0.3128,-0.3132,-0.3034,-0.2987,-0.2778,-0.2858,-0.2691,-0.2637,-0.2565,-0.2541,-0.2495,-0.2543,-0.288,-0.2881,-0.2882,-0.2883,0,-0.3159,-0.319,-0.3214,-0.3233,-0.3223,-0.3209,-0.3179,-0.3142,-0.315,-0.3093,-0.3088,-0.3051,-0.29,-0.2852,-0.2735,-0.2679,-0.2482,-0.2453,-0.2338,-0.2272,-0.2088,-0.2144,-0.1991,-0.1938,-0.2212,-0.2206,-0.2201,0,-0.3167,-0.3185,-0.3205,-0.3174,-0.3181,-0.3156,-0.3108,-0.3117,-0.3076,-0.3008,-0.295,-0.2826,-0.2655,-0.2402,-0.2281,-0.2118,-0.2204,-0.1953,-0.2044,-0.2028,-0.2055,-0.2115,-0.209,-0.1887,-0.188,-0.1875,-0.187,0,-0.3159,-0.3163,-0.3159,-0.3129,-0.3079,-0.303,-0.297,-0.294,-0.2907,-0.2834,-0.2656,-0.252,-0.2261,-0.2004,-0.18,-0.1729,-0.191,-0.1826,-0.1863,-0.182,-0.1832,-0.1768,-0.2026,-0.1819,-0.1824,-0.1828,-0.1831,-0.1833,-0.3107,-0.3096,-0.3068,-0.3023,-0.2959,-0.2853,-0.2763,-0.2686,-0.2571,-0.2385,-0.2346,-0.2054,-0.1876,-0.1544,-0.1454,-0.1328,-0.1459,-0.1362,-0.1436,-0.1502,-0.1435,-0.1536,-0.1234,-0.1236,-0.1237,-0.1239,-0.124,0,-0.3023,-0.299,-0.2941,-0.2853,-0.2735,-0.2748,-0.261,-0.2473,-0.2265,-0.2072,-0.1861,-0.1555,-0.1309,-0.1215,-0.1072,-0.1006,-0.1051,-0.1023,-0.116,-0.1158,-0.1278,-0.1249,-0.087,-0.087,-0.087,-0.087,-0.087,-0.087,-0.2957,-0.2881,-0.2864,-0.2644,-0.2564,-0.2359,-0.2251,-0.2059,-0.1872,-0.1501,-0.1264,-0.1093,-0.1051,-0.108,-0.0985,-0.0933,-0.0989,-0.0899,-0.0976,-0.1159,-0.1201,-0.1241,-0.1226,-0.0848,-0.0848,-0.082,-0.082,-0.082]},{"header":{"parameterUnit":"m.s-1","parameterCategory":2,"la1":30.2991,"la2":30.254,"lo1":-89.0895,"lo2":-89.0444,"dy":0.0017,"dx":0.0017,"nx":28,"ny":28,"refTime":"2024-04-30T21:00:00:Z","depth":"0","parameterNumber":3,"parameterNumberName":"V-component_of_CURRENTS"},"data":[0,0,0,0,0,0,0,0,0,0,0,0,0,0,0,0,0,0,0,0,0,0,0,0,0,0,0,0,0,0,0,0,0,0,0,0,0,0,0,0,0,0,0,0,0,0,0,0,0,0,0,0,0,0,0,0,0,0,0.0229,0.0231,0,0.0417,0.042,0.0422,0.0432,0.043,0.0428,0.0426,0.0621,0.0629,0.0636,0,0,0,0,0,0,0,0,0,0,0,0,0,-0.0009,-0.0006,0.0228,0.0231,0.0233,0.0417,0.042,0.0422,0.0433,0.043,0.0427,0.0424,0.0619,0.0628,0.0636,0,0,0,0,0,0,0,0,0,0,0,0,0,0.0129,-0.0004,0.0228,0.0259,0.0264,0.0416,0.042,0.0423,0.0433,0.043,0.0426,0.0423,0.0616,0.0627,0.0638,0.0775,0,0,0.0671,0.0676,0,0,0,0,0,0,0,0,0.0121,0.0138,0.0252,0.0257,0.0263,0.0397,0.0408,0.0541,0.0434,0.037,0.0425,0.0421,0.0549,0.0565,0.061,0.0784,0.0792,0.0672,0.0679,0.0684,0.0687,0,0,0,0,0,0,0,0.0111,0.0131,0.0304,0.0255,0.0261,0.0303,0.0318,0.0434,0.0478,0.0376,0.0376,0.0397,0.0551,0.0599,0.0615,0.0795,0.0672,0.0682,0.0689,0.0693,0.1022,0.1024,0,0,0,0,0,0,0.0084,0.0122,0.0298,0.031,0.0181,0.0309,0.0326,0.0358,0.0476,0.0491,0.0399,0.0396,0.0582,0.0602,0.0621,0.07,0.0684,0.0694,0.07,0.102,0.1023,0.1025,0,0,0,0,0,0,0.0079,0.0099,0.0291,0.0218,0.0245,0.0316,0.0353,0.0364,0.0404,0.0494,0.0508,0.0426,0.058,0.0606,0.072,0.071,0.0699,0.0709,0.1018,0.1021,0.1024,0.0914,0,0,0,0,0,0,0.0071,0.0096,0.0114,0.0217,0.0248,0.0379,0.0356,0.037,0.0421,0.0419,0.0523,0.0537,0.0579,0.0703,0.0731,0.0725,0.0718,0.1015,0.1019,0.1023,0.0915,0.0913,0.0912,0,0,0,0,0,0.0063,0.01,0.0114,0.0135,0.0269,0.0381,0.0402,0.0441,0.0426,0.0461,0.0521,0.0533,0.0746,0.0715,0.0747,0.0743,0.1013,0.1018,0.1023,0.0916,0.0914,0.0912,0,0,0,0,0,0,0.0,0.0109,0.0124,0.019,0.0276,0.0381,0.042,0.045,0.0531,0.0519,0.0587,0.061,0.0697,0.0764,0.0727,0.0855,0.0874,0.0885,0.0782,0.0781,0.0779,0.0705,0.0727,0,0,0,0,0,-0.0001,0.0055,0.016,0.0211,0.0253,0.0339,0.0388,0.0419,0.0501,0.0531,0.0603,0.0679,0.0752,0.0796,0.0884,0.0982,0.0995,0.0997,0.0995,0.0993,0.0959,0.0977,0.097,0.1041,0.1041,0.1041,0,0,-0.0017,0.0053,0.0081,0.0202,0.0267,0.0324,0.036,0.0437,0.0462,0.0547,0.0612,0.0691,0.0782,0.0861,0.0905,0.0908,0.0989,0.0999,0.0995,0.0962,0.098,0.0973,0.0965,0.1044,0.1043,0.1043,0,0,-0.0012,0.0051,0.0097,0.0167,0.0269,0.0324,0.0343,0.0456,0.0482,0.0581,0.0618,0.0687,0.0838,0.0869,0.0907,0.0967,0.0983,0.1005,0.093,0.0948,0.094,0.0933,0.0952,0.0948,0.0997,0.0997,0.0997,0,-0.0043,0.0027,0.0127,0.0185,0.0214,0.0313,0.0342,0.041,0.0537,0.0547,0.0584,0.0739,0.0824,0.0865,0.0873,0.0952,0.0967,0.0917,0.0936,0.093,0.0924,0.0946,0.0942,0.0992,0.0993,0.0993,0.0993,0,-0.0004,0.004,0.0075,0.0162,0.0217,0.0267,0.0353,0.0402,0.0445,0.0496,0.0565,0.0686,0.0753,0.0803,0.0857,0.0863,0.0888,0.0927,0.0916,0.0908,0.0935,0.0933,0.0985,0.0987,0.0988,0.0989,0,0,-0.0064,0.0069,0.0074,0.0079,0.0194,0.0231,0.0274,0.0327,0.0316,0.0442,0.0435,0.0569,0.0613,0.0661,0.074,0.0762,0.0757,0.0816,0.082,0.079,0.0788,0.0832,0.0834,0.0788,0.0787,0.0786,0.0824,0,-0.0084,-0.0023,0.0054,0.0068,0.009,0.0162,0.018,0.0233,0.0293,0.0328,0.042,0.0473,0.0566,0.0591,0.0627,0.0737,0.0745,0.0742,0.084,0.0842,0.0843,0.0831,0.0842,0.0878,0.0822,0.0822,0.0821,0,-0.0088,-0.0055,-0.0039,-0.0023,-0.0011,0.001,0.0007,0.0045,0.0116,0.0156,0.0216,0.0306,0.0376,0.0454,0.0578,0.0571,0.0651,0.073,0.0734,0.0799,0.088,0.0882,0.0877,0.0978,0.0818,0.0819,0.0819,0,-0.0205,-0.0142,-0.0153,-0.0134,-0.0075,-0.0089,-0.007,-0.0017,-0.0012,0.005,0.0067,0.0162,0.0229,0.033,0.0525,0.0536,0.0659,0.07,0.0804,0.0809,0.0848,0.0858,0.0908,0.0738,0.0737,0.0737,0.0737,0,-0.0268,-0.0287,-0.0211,-0.0215,-0.0267,-0.0194,-0.0237,-0.0204,-0.016,-0.0155,-0.0029,0.0015,0.0199,0.032,0.0465,0.064,0.0614,0.0768,0.0812,0.0819,0.0825,0.0942,0.0991,0.0739,0.0738,0.0738,0.0738,0,-0.0385,-0.0326,-0.0346,-0.031,-0.031,-0.0346,-0.0333,-0.0358,-0.0297,-0.0283,-0.0268,-0.0104,0.0075,0.0266,0.0459,0.0576,0.0796,0.0789,0.079,0.0832,0.101,0.1053,0.1132,0.1201,0.0883,0.0884,0.0885,0,-0.0438,-0.0448,-0.043,-0.0451,-0.0433,-0.0462,-0.0485,-0.0438,-0.0442,-0.0335,-0.033,-0.0157,0.0007,0.0316,0.0539,0.0766,0.0864,0.0881,0.0898,0.0999,0.108,0.1107,0.1161,0.0919,0.092,0.0921,0.0922,0,-0.055,-0.0531,-0.0539,-0.0576,-0.0601,-0.063,-0.0639,-0.0655,-0.0583,-0.0526,-0.0387,-0.0242,0.0078,0.0378,0.0662,0.0794,0.095,0.0906,0.1007,0.1094,0.1128,0.1224,0.092,0.093,0.0929,0.0929,0.0928,0.0928,-0.0642,-0.0674,-0.0671,-0.0719,-0.0742,-0.0767,-0.0781,-0.0742,-0.0707,-0.0562,-0.0426,-0.015,0.0232,0.0667,0.0811,0.1065,0.1054,0.114,0.1179,0.1194,0.1268,0.0981,0.1047,0.1047,0.1047,0.1047,0.1047,0,-0.0765,-0.0778,-0.0819,-0.0853,-0.0895,-0.0871,-0.0867,-0.0829,-0.0741,-0.0546,-0.0354,0.0115,0.0494,0.0827,0.1185,0.1326,0.1357,0.1393,0.1426,0.1468,0.1209,0.122,0.1331,0.133,0.133,0.133,0.133,0.133,-0.0832,-0.0898,-0.0908,-0.0987,-0.0999,-0.1017,-0.0999,-0.0876,-0.0717,-0.0382,-0.0078,0.0179,0.0616,0.1197,0.1527,0.1561,0.17,0.168,0.1765,0.1582,0.1561,0.1541,0.1562,0.1743,0.1743,0.2008,0.2011,0.2013]}],[{"header":{"parameterUnit":"m.s-1","parameterCategory":2,"la1":30.2991,"la2":30.254,"lo1":-89.0895,"lo2":-89.0444,"dy":0.0017,"dx":0.0017,"nx":28,"ny":28,"refTime":"2024-04-30T21:00:00:Z","depth":"2","parameterNumber":2,"parameterNumberName":"U-component_of_CURRENTS"},"data":[0,0,0,0,0,0,0,0,0,0,0,0,0,0,0,0,0,0,0,0,0,0,0,0,0,0,0,0,0,0,0,0,0,0,0,0,0,0,0,0,0,0,0,0,0,0,0,0,0,0,0,0,0,0,0,0,0,0,-0.1733,-0.1734,0,-0.1748,-0.1748,-0.1747,-0.182,-0.1823,-0.1825,-0.1828,-0.1777,-0.1774,-0.177,0,0,0,0,0,0,0,0,0,0,0,0,0,-0.1467,-0.1472,-0.1733,-0.1734,-0.1735,-0.1748,-0.1748,-0.1747,-0.182,-0.1823,-0.1826,-0.1829,-0.1779,-0.1774,-0.177,0,0,0,0,0,0,0,0,0,0,0,0,0,-0.1535,-0.1474,-0.1733,-0.1779,-0.1784,-0.1748,-0.1748,-0.1747,-0.1819,-0.1823,-0.1827,-0.183,-0.178,-0.1775,-0.1769,-0.1661,0,0,-0.1753,-0.175,0,0,0,0,0,0,0,0,-0.1531,-0.1544,-0.1771,-0.1776,-0.1781,-0.1794,-0.1636,-0.1718,-0.1818,-0.1797,-0.1828,-0.1832,-0.1779,-0.1774,-0.1758,-0.1659,-0.1657,-0.1752,-0.1749,-0.1746,-0.1745,0,0,0,0,0,0,0,-0.1527,-0.1542,-0.173,-0.1772,-0.1778,-0.1696,-0.1712,-0.165,-0.1759,-0.1799,-0.1807,-0.182,-0.1781,-0.1763,-0.1757,-0.1656,-0.1752,-0.1747,-0.1744,-0.1742,-0.1609,-0.1609,0,0,0,0,0,0,-0.1554,-0.154,-0.173,-0.1732,-0.1672,-0.17,-0.1717,-0.1779,-0.1762,-0.1766,-0.1817,-0.1824,-0.1771,-0.1764,-0.1756,-0.1772,-0.1746,-0.1741,-0.1738,-0.161,-0.1609,-0.1609,0,0,0,0,0,0,-0.1549,-0.1573,-0.173,-0.1638,-0.1654,-0.1704,-0.177,-0.1777,-0.1812,-0.1778,-0.178,-0.1852,-0.1773,-0.1763,-0.1742,-0.1766,-0.1739,-0.1734,-0.161,-0.1609,-0.1609,-0.1712,0,0,0,0,0,0,-0.1542,-0.1572,-0.1617,-0.1643,-0.1661,-0.1737,-0.1768,-0.1775,-0.1815,-0.1825,-0.1806,-0.1803,-0.1775,-0.1751,-0.1737,-0.1758,-0.173,-0.161,-0.161,-0.1609,-0.1709,-0.1715,-0.172,0,0,0,0,0,-0.1533,-0.1581,-0.162,-0.1643,-0.1727,-0.1738,-0.1738,-0.1776,-0.1814,-0.1821,-0.1819,-0.1806,-0.1739,-0.1746,-0.173,-0.175,-0.161,-0.161,-0.1609,-0.1706,-0.1714,-0.172,0,0,0,0,0,0,-0.1479,-0.1595,-0.1638,-0.172,-0.1743,-0.1755,-0.1766,-0.1793,-0.1794,-0.1812,-0.179,-0.1784,-0.1775,-0.1735,-0.1743,-0.1708,-0.1675,-0.1672,-0.1754,-0.1761,-0.1767,-0.1771,-0.1725,0,0,0,0,0,-0.1492,-0.1573,-0.1637,-0.1698,-0.1718,-0.1747,-0.1758,-0.1787,-0.1794,-0.1802,-0.179,-0.177,-0.1744,-0.1738,-0.1695,-0.1664,-0.1624,-0.1667,-0.1673,-0.1679,-0.1669,-0.1646,-0.165,-0.1607,-0.1607,-0.1607,0,0,-0.1483,-0.1559,-0.1603,-0.1692,-0.1714,-0.1735,-0.1763,-0.1793,-0.1812,-0.1787,-0.1801,-0.1782,-0.1738,-0.172,-0.1712,-0.1702,-0.1666,-0.1678,-0.1684,-0.167,-0.1646,-0.165,-0.1654,-0.1607,-0.1607,-0.1607,0,0,-0.1482,-0.158,-0.1635,-0.1665,-0.1724,-0.1737,-0.176,-0.1791,-0.1815,-0.1811,-0.1812,-0.1812,-0.1759,-0.1748,-0.1732,-0.1733,-0.1694,-0.1727,-0.1767,-0.1746,-0.175,-0.1753,-0.1704,-0.1701,-0.1737,-0.1738,-0.1738,0,-0.1465,-0.1567,-0.1636,-0.168,-0.1708,-0.175,-0.1776,-0.1788,-0.1806,-0.1816,-0.1831,-0.179,-0.177,-0.1759,-0.1779,-0.1749,-0.1721,-0.1754,-0.1757,-0.1759,-0.176,-0.1709,-0.1705,-0.1742,-0.1742,-0.1741,-0.1741,0,-0.1493,-0.1575,-0.1599,-0.1693,-0.1714,-0.1743,-0.1781,-0.1802,-0.1836,-0.1845,-0.185,-0.1824,-0.1805,-0.1811,-0.18,-0.1804,-0.1775,-0.1768,-0.1749,-0.1771,-0.1715,-0.1709,-0.1749,-0.1748,-0.1746,-0.1745,0,0,-0.1457,-0.1599,-0.1609,-0.165,-0.1732,-0.174,-0.1784,-0.1817,-0.1838,-0.1855,-0.1872,-0.1862,-0.1865,-0.1845,-0.1839,-0.1838,-0.1839,-0.1822,-0.1819,-0.179,-0.1776,-0.1708,-0.1695,-0.1846,-0.1846,-0.1846,-0.1733,0,-0.1459,-0.1547,-0.1617,-0.1665,-0.1705,-0.1762,-0.1783,-0.1816,-0.1844,-0.1858,-0.1868,-0.1861,-0.1873,-0.1873,-0.188,-0.1843,-0.1829,-0.1868,-0.1742,-0.1737,-0.169,-0.1688,-0.1583,-0.1471,-0.1727,-0.1726,-0.1725,0,-0.1461,-0.1527,-0.1595,-0.1672,-0.1691,-0.1714,-0.1763,-0.1786,-0.1825,-0.1848,-0.187,-0.1871,-0.1877,-0.1881,-0.1836,-0.1866,-0.1826,-0.1799,-0.1793,-0.1687,-0.1659,-0.1487,-0.145,-0.1715,-0.1716,-0.1716,-0.1717,0,-0.1397,-0.15,-0.1558,-0.1589,-0.1678,-0.1705,-0.1733,-0.1781,-0.1784,-0.1838,-0.1836,-0.1859,-0.1841,-0.1827,-0.1785,-0.1815,-0.1715,-0.1739,-0.1629,-0.1623,-0.1482,-0.1464,-0.1689,-0.169,-0.169,-0.169,-0.169,0,-0.1379,-0.1415,-0.1533,-0.1562,-0.1579,-0.1658,-0.1664,-0.171,-0.1747,-0.1732,-0.1813,-0.179,-0.183,-0.1785,-0.1767,-0.1666,-0.169,-0.1619,-0.159,-0.1512,-0.1499,-0.167,-0.167,-0.1686,-0.1687,-0.1688,-0.1688,0,-0.1301,-0.1396,-0.1447,-0.1545,-0.1559,-0.1565,-0.1596,-0.1596,-0.1656,-0.1643,-0.1655,-0.1712,-0.1669,-0.1664,-0.1617,-0.1603,-0.1538,-0.1488,-0.1382,-0.1344,-0.1467,-0.1472,-0.1369,-0.1366,-0.1363,-0.1361,-0.1359,0,-0.1268,-0.1302,-0.14,-0.1409,-0.1454,-0.1468,-0.1469,-0.1535,-0.1533,-0.1573,-0.1551,-0.1541,-0.1495,-0.1407,-0.1391,-0.132,-0.1396,-0.1198,-0.1244,-0.1452,-0.1434,-0.1445,-0.1454,-0.109,-0.1086,-0.1082,-0.108,0,-0.1179,-0.1234,-0.1277,-0.1301,-0.1316,-0.1314,-0.1329,-0.1314,-0.1384,-0.1382,-0.137,-0.1343,-0.1278,-0.1185,-0.1122,-0.1082,-0.1218,-0.1128,-0.1349,-0.12,-0.1183,-0.1168,-0.1187,-0.1051,-0.1054,-0.1056,-0.1057,-0.1058,-0.1084,-0.1091,-0.1153,-0.1157,-0.1178,-0.1167,-0.1116,-0.1149,-0.1128,-0.1103,-0.1155,-0.1084,-0.1091,-0.0938,-0.0889,-0.0886,-0.0976,-0.097,-0.0982,-0.0997,-0.0998,-0.0979,-0.0806,-0.0807,-0.0808,-0.0809,-0.081,0,-0.0928,-0.0976,-0.0987,-0.0997,-0.0963,-0.103,-0.1012,-0.0943,-0.0893,-0.0916,-0.0875,-0.0767,-0.0705,-0.072,-0.0667,-0.0672,-0.0693,-0.0657,-0.0694,-0.0721,-0.0746,-0.0738,-0.0474,-0.0473,-0.0473,-0.0472,0,0,-0.0847,-0.0821,-0.0843,-0.0768,-0.0786,-0.0706,-0.068,-0.0628,-0.0613,-0.0549,-0.0537,-0.0585,-0.0654,-0.0548,-0.054,-0.0496,-0.06,-0.0469,-0.0732,-0.0798,-0.0822,-0.0913,-0.0928,0,0,0,0,0]},{"header":{"parameterUnit":"m.s-1","parameterCategory":2,"la1":30.2991,"la2":30.254,"lo1":-89.0895,"lo2":-89.0444,"dy":0.0017,"dx":0.0017,"nx":28,"ny":28,"refTime":"2024-04-30T21:00:00:Z","depth":"2","parameterNumber":3,"parameterNumberName":"V-component_of_CURRENTS"},"data":[0,0,0,0,0,0,0,0,0,0,0,0,0,0,0,0,0,0,0,0,0,0,0,0,0,0,0,0,0,0,0,0,0,0,0,0,0,0,0,0,0,0,0,0,0,0,0,0,0,0,0,0,0,0,0,0,0,0,-0.0328,-0.0327,0,-0.0208,-0.0207,-0.0205,-0.0151,-0.0151,-0.0151,-0.0152,-0.0012,-0.0008,-0.0004,0,0,0,0,0,0,0,0,0,0,0,0,0,-0.029,-0.0293,-0.0328,-0.0327,-0.0326,-0.0208,-0.0207,-0.0205,-0.0151,-0.0151,-0.0151,-0.0152,-0.0013,-0.0009,-0.0004,0,0,0,0,0,0,0,0,0,0,0,0,0,-0.0251,-0.0293,-0.0329,-0.0286,-0.0281,-0.0209,-0.0206,-0.0204,-0.0151,-0.0151,-0.0151,-0.0152,-0.0015,-0.0009,-0.0003,0.0042,0,0,0.0015,0.0018,0,0,0,0,0,0,0,0,-0.0254,-0.0253,-0.0294,-0.0289,-0.0283,-0.0196,-0.0142,-0.0121,-0.015,-0.0198,-0.0152,-0.0152,-0.0073,-0.0062,-0.0036,0.0049,0.0055,0.0015,0.0019,0.0022,0.0023,0,0,0,0,0,0,0,-0.0257,-0.0256,-0.0279,-0.0292,-0.0286,-0.0197,-0.0194,-0.0137,-0.0133,-0.0194,-0.019,-0.018,-0.007,-0.0042,-0.0033,0.0057,0.0015,0.0021,0.0024,0.0027,0.0238,0.024,0,0,0,0,0,0,-0.0287,-0.026,-0.0283,-0.0276,-0.0271,-0.0199,-0.0195,-0.0222,-0.0134,-0.0121,-0.0179,-0.0178,-0.0052,-0.004,-0.0027,0.0081,0.0022,0.0027,0.0031,0.0236,0.0238,0.0241,0,0,0,0,0,0,-0.0287,-0.0292,-0.0288,-0.0263,-0.0257,-0.0201,-0.0231,-0.022,-0.0195,-0.0123,-0.011,-0.0167,-0.0052,-0.0036,0.0036,0.0085,0.003,0.0035,0.0234,0.0237,0.0239,0.0267,0,0,0,0,0,0,-0.0287,-0.0294,-0.032,-0.0268,-0.026,-0.0239,-0.023,-0.0217,-0.0188,-0.0185,-0.0108,-0.0095,-0.0051,0.0027,0.0042,0.0092,0.004,0.0231,0.0235,0.0239,0.0263,0.027,0.0276,0,0,0,0,0,-0.0287,-0.0327,-0.0323,-0.0324,-0.0301,-0.0238,-0.0225,-0.0182,-0.0188,-0.0165,-0.0114,-0.0098,0.0062,0.0033,0.005,0.0103,0.0229,0.0234,0.0238,0.026,0.0269,0.0276,0,0,0,0,0,0,-0.033,-0.0324,-0.0318,-0.0358,-0.0297,-0.023,-0.0216,-0.0187,-0.0129,-0.0132,-0.0074,-0.0055,0.0026,0.0058,0.0025,0.0176,0.0149,0.0158,0.016,0.0169,0.0175,0.0147,0.0045,0,0,0,0,0,-0.0353,-0.0385,-0.0335,-0.0364,-0.034,-0.0278,-0.0251,-0.0216,-0.016,-0.0137,-0.0076,-0.0011,0.0061,0.0105,0.0167,0.0248,0.0242,0.0294,0.0301,0.0306,0.0296,0.0354,0.0364,0.0256,0.0255,0.0255,0,0,-0.0383,-0.038,-0.0402,-0.0374,-0.0333,-0.0274,-0.0263,-0.0222,-0.0164,-0.0129,-0.0043,0.0009,0.0084,0.018,0.022,0.0212,0.0326,0.0312,0.0316,0.0302,0.036,0.037,0.0379,0.0259,0.0258,0.0258,0,0,-0.0419,-0.0449,-0.0459,-0.0404,-0.0341,-0.0289,-0.028,-0.0199,-0.0158,-0.0069,-0.0027,0.0049,0.0159,0.0233,0.0281,0.0359,0.0352,0.0383,0.0407,0.0465,0.0473,0.0481,0.0444,0.0449,0.0396,0.0396,0.0396,0,-0.0444,-0.0457,-0.0442,-0.0401,-0.0358,-0.0297,-0.025,-0.0186,-0.0086,-0.0049,-0.0041,0.0126,0.019,0.031,0.0344,0.0375,0.0368,0.037,0.0471,0.0479,0.0486,0.0447,0.0452,0.0398,0.0398,0.0397,0.0397,0,-0.0453,-0.0445,-0.0439,-0.0376,-0.0322,-0.0278,-0.0183,-0.0127,-0.0079,-0.0007,0.0102,0.0193,0.0286,0.0336,0.0369,0.0469,0.0429,0.0463,0.0443,0.0499,0.0454,0.0458,0.04,0.04,0.0399,0.0399,0,0,-0.0543,-0.0466,-0.0458,-0.0418,-0.0307,-0.0265,-0.0174,-0.0073,-0.0023,0.0085,0.0156,0.0302,0.033,0.0384,0.0443,0.0507,0.055,0.0506,0.0508,0.0452,0.0605,0.0575,0.0575,0.0605,0.0607,0.0609,0.0535,0,-0.054,-0.0491,-0.0437,-0.0356,-0.0313,-0.0225,-0.0144,-0.0046,0.0037,0.0126,0.0226,0.0319,0.0359,0.04,0.0474,0.0534,0.0569,0.0562,0.0573,0.0571,0.0528,0.0584,0.0577,0.0514,0.0539,0.054,0.054,0,-0.0543,-0.0511,-0.0457,-0.0355,-0.0328,-0.0266,-0.0156,-0.0073,0.0065,0.0125,0.0227,0.0304,0.0413,0.0437,0.0546,0.0535,0.0564,0.0601,0.0601,0.0566,0.0552,0.0475,0.052,0.0547,0.0546,0.0546,0.0545,0,-0.0611,-0.0515,-0.0488,-0.0447,-0.0323,-0.0287,-0.0218,-0.0085,-0.0023,0.0114,0.0159,0.03,0.0351,0.0441,0.0509,0.0534,0.0591,0.0639,0.0624,0.0617,0.061,0.0601,0.0707,0.0707,0.0707,0.0707,0.0707,0,-0.0625,-0.0592,-0.0524,-0.0501,-0.0456,-0.0349,-0.0286,-0.0195,-0.0077,-0.0007,0.0138,0.0197,0.0361,0.0421,0.0488,0.054,0.0568,0.0619,0.062,0.0614,0.0607,0.0647,0.0641,0.0704,0.0705,0.0705,0.0706,0,-0.0681,-0.064,-0.06,-0.0512,-0.0487,-0.0458,-0.035,-0.0301,-0.0185,-0.0097,-0.0059,0.0107,0.0192,0.0306,0.0426,0.0491,0.056,0.0564,0.0494,0.0491,0.0542,0.0539,0.056,0.0559,0.0558,0.0557,0.0556,0,-0.0694,-0.0692,-0.0641,-0.0634,-0.0595,-0.0543,-0.0506,-0.0378,-0.0322,-0.016,-0.013,-0.0013,0.0071,0.0199,0.0351,0.0442,0.0477,0.0478,0.0567,0.0539,0.0538,0.0536,0.0534,0.0535,0.0534,0.0533,0.0533,0,-0.0716,-0.0721,-0.07,-0.0704,-0.0682,-0.0647,-0.0583,-0.0562,-0.0411,-0.0336,-0.0235,-0.0158,0.0011,0.0155,0.0286,0.0352,0.0478,0.0468,0.0488,0.0582,0.0514,0.0513,0.0513,0.0527,0.0528,0.0528,0.0528,0.0529,-0.0734,-0.075,-0.0752,-0.0747,-0.0739,-0.0734,-0.0707,-0.0654,-0.059,-0.0454,-0.0363,-0.0227,-0.0041,0.0165,0.028,0.0413,0.0429,0.0485,0.0488,0.0492,0.0512,0.0448,0.0445,0.0445,0.0445,0.0445,0.0445,0,-0.0724,-0.0765,-0.0782,-0.0781,-0.0785,-0.077,-0.0734,-0.0701,-0.0654,-0.0543,-0.0438,-0.0213,-0.0061,0.0122,0.0336,0.0456,0.0484,0.0467,0.0498,0.0502,0.0506,0.0529,0.0466,0.0466,0.0466,0.0467,0,0,-0.0719,-0.0756,-0.0777,-0.0802,-0.081,-0.079,-0.0774,-0.0742,-0.066,-0.0555,-0.0432,-0.0309,-0.0063,0.0092,0.0254,0.0368,0.0401,0.0373,0.0343,0.0364,0.0366,0.05,0.0536,0,0,0,0,0]}],[{"header":{"parameterUnit":"m.s-1","parameterCategory":2,"la1":30.2991,"la2":30.254,"lo1":-89.0895,"lo2":-89.0444,"dy":0.0017,"dx":0.0017,"nx":28,"ny":28,"refTime":"2024-04-30T21:00:00:Z","depth":"4","parameterNumber":2,"parameterNumberName":"U-component_of_CURRENTS"},"data":[0,0,0,0,0,0,0,0,0,0,0,0,0,0,0,0,0,0,0,0,0,0,0,0,0,0,0,0,0,0,0,0,0,0,0,0,0,0,0,0,0,0,0,0,0,0,0,0,0,0,0,0,0,0,0,0,0,0,-0.0434,-0.0434,0,-0.0448,-0.0449,-0.0449,-0.0465,-0.0465,-0.0465,-0.0465,-0.0523,-0.0524,-0.0526,0,0,0,0,0,0,0,0,0,0,0,0,0,-0.0465,-0.0464,-0.0434,-0.0434,-0.0434,-0.0448,-0.0449,-0.0449,-0.0465,-0.0465,-0.0465,-0.0465,-0.0522,-0.0524,-0.0526,0,0,0,0,0,0,0,0,0,0,0,0,0,-0.0465,-0.0464,-0.0434,-0.0442,-0.0442,-0.0448,-0.0449,-0.0449,-0.0465,-0.0465,-0.0465,-0.0465,-0.0522,-0.0524,-0.0526,-0.054,0,0,-0.0533,-0.0534,0,0,0,0,0,0,0,0,-0.0465,-0.0464,-0.0441,-0.0441,-0.0442,-0.0453,-0.0481,-0.0481,-0.0465,-0.0459,-0.0465,-0.0465,-0.0502,-0.0506,-0.0511,-0.0543,-0.0545,-0.0533,-0.0535,-0.0536,-0.0536,0,0,0,0,0,0,0,-0.0465,-0.0464,-0.0442,-0.0441,-0.0441,-0.046,-0.0459,-0.0481,-0.0483,-0.046,-0.046,-0.0458,-0.0503,-0.0509,-0.0513,-0.0546,-0.0533,-0.0535,-0.0537,-0.0538,-0.0669,-0.0671,0,0,0,0,0,0,-0.0455,-0.0463,-0.0442,-0.0442,-0.0451,-0.0459,-0.0459,-0.0451,-0.0482,-0.0485,-0.0458,-0.0458,-0.0505,-0.051,-0.0515,-0.0593,-0.0536,-0.0538,-0.0539,-0.0667,-0.067,-0.0672,0,0,0,0,0,0,-0.0456,-0.0453,-0.0441,-0.0452,-0.0451,-0.0457,-0.0449,-0.0451,-0.0461,-0.0479,-0.0484,-0.0465,-0.0505,-0.0512,-0.055,-0.0593,-0.0539,-0.0541,-0.0665,-0.0668,-0.0671,-0.0712,0,0,0,0,0,0,-0.0457,-0.0453,-0.0446,-0.0451,-0.045,-0.0442,-0.0449,-0.0452,-0.0458,-0.0459,-0.0488,-0.0493,-0.0506,-0.0547,-0.0552,-0.0596,-0.0543,-0.0662,-0.0666,-0.067,-0.0708,-0.0716,-0.0723,0,0,0,0,0,-0.0458,-0.0443,-0.0445,-0.0442,-0.0439,-0.0442,-0.0444,-0.0451,-0.0458,-0.0461,-0.0493,-0.0492,-0.0577,-0.0549,-0.0556,-0.0601,-0.066,-0.0665,-0.067,-0.0704,-0.0714,-0.0723,0,0,0,0,0,0,-0.0447,-0.0443,-0.0446,-0.0429,-0.0435,-0.0444,-0.044,-0.0453,-0.0478,-0.0482,-0.0508,-0.0516,-0.0562,-0.0579,-0.0548,-0.0654,-0.0623,-0.0629,-0.0648,-0.0657,-0.0665,-0.0643,-0.0545,0,0,0,0,0,-0.0441,-0.0432,-0.0436,-0.0422,-0.0423,-0.0435,-0.0438,-0.0445,-0.0465,-0.0476,-0.0507,-0.0547,-0.0587,-0.0617,-0.064,-0.0697,-0.0682,-0.0736,-0.0744,-0.075,-0.0739,-0.076,-0.0767,-0.0688,-0.0688,-0.0688,0,0,-0.0432,-0.0428,-0.0422,-0.042,-0.0423,-0.0433,-0.0437,-0.0438,-0.0463,-0.0479,-0.0528,-0.0559,-0.0602,-0.0663,-0.0689,-0.0685,-0.0766,-0.0756,-0.0761,-0.0746,-0.0765,-0.0772,-0.0779,-0.0691,-0.0691,-0.069,0,0,-0.0406,-0.0406,-0.039,-0.0396,-0.0399,-0.0423,-0.0426,-0.0447,-0.0471,-0.0518,-0.0544,-0.0593,-0.0663,-0.0703,-0.0733,-0.0796,-0.0789,-0.0829,-0.0868,-0.0889,-0.0895,-0.09,-0.0885,-0.0888,-0.0852,-0.0852,-0.0852,0,-0.0392,-0.0377,-0.0388,-0.0378,-0.039,-0.0422,-0.0426,-0.0458,-0.0498,-0.0527,-0.0537,-0.065,-0.0677,-0.0761,-0.0796,-0.081,-0.0816,-0.0828,-0.0896,-0.0901,-0.0905,-0.0889,-0.0891,-0.0855,-0.0854,-0.0854,-0.0854,0,-0.036,-0.0352,-0.0344,-0.0357,-0.0379,-0.0381,-0.0431,-0.0471,-0.0519,-0.0555,-0.0635,-0.0686,-0.0757,-0.0792,-0.0819,-0.089,-0.088,-0.0885,-0.0864,-0.0915,-0.0895,-0.0897,-0.0858,-0.0857,-0.0857,-0.0856,0,0,-0.0312,-0.032,-0.0316,-0.0323,-0.0367,-0.0382,-0.0445,-0.0506,-0.0547,-0.0615,-0.0683,-0.0767,-0.0802,-0.0838,-0.0888,-0.0926,-0.0961,-0.0937,-0.0937,-0.0905,-0.0996,-0.0939,-0.0935,-0.0993,-0.0994,-0.0995,-0.0966,0,-0.0282,-0.0263,-0.0293,-0.0309,-0.031,-0.0379,-0.0436,-0.0502,-0.0573,-0.0651,-0.0727,-0.0803,-0.0822,-0.0879,-0.0918,-0.0948,-0.0972,-0.0967,-0.0965,-0.0964,-0.0894,-0.0937,-0.0998,-0.0968,-0.0968,-0.0968,-0.0969,0,-0.024,-0.0238,-0.0234,-0.0287,-0.0297,-0.0334,-0.0439,-0.05,-0.0616,-0.0664,-0.0758,-0.0822,-0.0909,-0.0919,-0.0972,-0.0978,-0.0988,-0.1,-0.1,-0.0929,-0.0911,-0.0911,-0.0972,-0.0972,-0.0971,-0.0971,-0.0971,0,-0.0192,-0.0204,-0.0206,-0.0215,-0.028,-0.0321,-0.0397,-0.0504,-0.0562,-0.0696,-0.0745,-0.0843,-0.0906,-0.0942,-0.0984,-0.0989,-0.1023,-0.1023,-0.0969,-0.0963,-0.1001,-0.0996,-0.1044,-0.1044,-0.1044,-0.1044,-0.1044,0,-0.0147,-0.0145,-0.0183,-0.0176,-0.0212,-0.0294,-0.0361,-0.0444,-0.0566,-0.0627,-0.0759,-0.0811,-0.0921,-0.097,-0.0989,-0.098,-0.1019,-0.0966,-0.0959,-0.102,-0.1018,-0.1002,-0.0997,-0.1043,-0.1043,-0.1043,-0.1044,0,-0.0086,-0.01,-0.0098,-0.0154,-0.0179,-0.022,-0.034,-0.0391,-0.0512,-0.0605,-0.0658,-0.0794,-0.0851,-0.0932,-0.0983,-0.0968,-0.0976,-0.0963,-0.1006,-0.1002,-0.0893,-0.0891,-0.0881,-0.0879,-0.0877,-0.0876,-0.0874,0,-0.0057,-0.0037,-0.0065,-0.0072,-0.0099,-0.0168,-0.0217,-0.0351,-0.0407,-0.0568,-0.0602,-0.0722,-0.0798,-0.0817,-0.0896,-0.0925,-0.0928,-0.0915,-0.0919,-0.0886,-0.088,-0.0881,-0.0882,-0.0872,-0.0871,-0.0871,-0.087,0,-0.0,0.0003,-0.0,-0.001,-0.0045,-0.0086,-0.0173,-0.0199,-0.0355,-0.0448,-0.054,-0.0626,-0.0692,-0.076,-0.0811,-0.0827,-0.0917,-0.0896,-0.0899,-0.0903,-0.0874,-0.087,-0.0873,-0.0864,-0.0865,-0.0866,-0.0866,0,0.0039,0.0049,0.0051,0.0031,0.0005,-0.0024,-0.0069,-0.0148,-0.0226,-0.0406,-0.041,-0.0553,-0.0651,-0.0706,-0.0737,-0.0773,-0.0763,-0.074,-0.0752,-0.0759,-0.0744,-0.0691,-0.0614,0,0,0,0,0,0.0076,0.008,0.0079,0.0054,0.0034,0.0009,-0.0052,-0.0103,-0.0219,-0.0261,-0.035,-0.0417,-0.0522,-0.0585,-0.0602,-0.068,-0.0757,-0.0695,-0.0733,-0.083,-0.0837,-0.0836,0,0,0,0,0,0,0.0094,0.0104,0.0091,0.0073,0.0061,0.0024,-0.0006,-0.0078,-0.0109,-0.0223,-0.0278,-0.0378,-0.0477,-0.0511,-0.0592,-0.0613,-0.0623,-0.0776,-0.0774,-0.0826,-0.0832,-0.0838,-0.084,0,0,0,0,0]},{"header":{"parameterUnit":"m.s-1","parameterCategory":2,"la1":30.2991,"la2":30.254,"lo1":-89.0895,"lo2":-89.0444,"dy":0.0017,"dx":0.0017,"nx":28,"ny":28,"refTime":"2024-04-30T21:00:00:Z","depth":"4","parameterNumber":3,"parameterNumberName":"V-component_of_CURRENTS"},"data":[0,0,0,0,0,0,0,0,0,0,0,0,0,0,0,0,0,0,0,0,0,0,0,0,0,0,0,0,0,0,0,0,0,0,0,0,0,0,0,0,0,0,0,0,0,0,0,0,0,0,0,0,0,0,0,0,0,0,-0.0273,-0.0274,0,-0.0342,-0.0343,-0.0344,-0.0319,-0.0317,-0.0316,-0.0314,-0.0304,-0.0305,-0.0307,0,0,0,0,0,0,0,0,0,0,0,0,0,-0.0132,-0.0135,-0.0273,-0.0274,-0.0275,-0.0342,-0.0343,-0.0344,-0.0319,-0.0317,-0.0315,-0.0314,-0.0304,-0.0305,-0.0307,0,0,0,0,0,0,0,0,0,0,0,0,0,-0.0197,-0.0136,-0.0273,-0.0271,-0.0271,-0.0342,-0.0343,-0.0344,-0.032,-0.0317,-0.0315,-0.0313,-0.0303,-0.0305,-0.0307,-0.0365,0,0,-0.0312,-0.0313,0,0,0,0,0,0,0,0,-0.0193,-0.0202,-0.027,-0.0271,-0.0272,-0.0319,-0.0289,-0.0347,-0.032,-0.0302,-0.0314,-0.0312,-0.0304,-0.0305,-0.0325,-0.0365,-0.0364,-0.0313,-0.0314,-0.0314,-0.0315,0,0,0,0,0,0,0,-0.0189,-0.0199,-0.0301,-0.0271,-0.0272,-0.027,-0.0276,-0.0301,-0.0314,-0.0303,-0.0301,-0.0309,-0.0303,-0.0323,-0.0324,-0.0364,-0.0312,-0.0314,-0.0315,-0.0316,-0.042,-0.0421,0,0,0,0,0,0,-0.0183,-0.0195,-0.0299,-0.0303,-0.0225,-0.0274,-0.0281,-0.0307,-0.0315,-0.0315,-0.0311,-0.0308,-0.0321,-0.0322,-0.0324,-0.0364,-0.0314,-0.0316,-0.0317,-0.0418,-0.042,-0.0422,0,0,0,0,0,0,-0.018,-0.0192,-0.0296,-0.0249,-0.0262,-0.0279,-0.0307,-0.0309,-0.0327,-0.0322,-0.032,-0.0326,-0.032,-0.0321,-0.0353,-0.0364,-0.0317,-0.0318,-0.0416,-0.0419,-0.0421,-0.0462,0,0,0,0,0,0,-0.0176,-0.0191,-0.0212,-0.0249,-0.0264,-0.0344,-0.031,-0.0312,-0.0335,-0.0332,-0.0335,-0.0332,-0.0318,-0.0351,-0.0355,-0.0365,-0.032,-0.0414,-0.0417,-0.042,-0.0459,-0.0466,-0.0472,0,0,0,0,0,-0.0171,-0.0212,-0.0213,-0.0225,-0.0292,-0.0345,-0.0354,-0.0356,-0.0338,-0.0361,-0.0361,-0.0331,-0.0373,-0.0355,-0.0359,-0.037,-0.0412,-0.0416,-0.042,-0.0456,-0.0464,-0.0472,0,0,0,0,0,0,-0.0164,-0.0214,-0.0216,-0.0271,-0.0305,-0.034,-0.0366,-0.0368,-0.039,-0.0383,-0.0366,-0.0365,-0.0397,-0.0389,-0.0369,-0.0411,-0.0383,-0.0388,-0.0409,-0.0417,-0.0424,-0.0405,-0.0321,0,0,0,0,0,-0.0174,-0.0216,-0.0257,-0.0301,-0.0321,-0.0346,-0.0368,-0.0374,-0.0396,-0.0404,-0.0409,-0.0411,-0.0422,-0.0422,-0.044,-0.0471,-0.0414,-0.0478,-0.0484,-0.049,-0.0479,-0.0416,-0.0414,-0.0434,-0.0434,-0.0434,0,0,-0.0183,-0.0217,-0.024,-0.0302,-0.0329,-0.0375,-0.0354,-0.0398,-0.0424,-0.0401,-0.0443,-0.0447,-0.0441,-0.0471,-0.0482,-0.0458,-0.0455,-0.0495,-0.0499,-0.0485,-0.0419,-0.0417,-0.0414,-0.0437,-0.0436,-0.0436,0,0,-0.0223,-0.0255,-0.03,-0.0334,-0.0381,-0.0405,-0.0418,-0.0464,-0.0467,-0.052,-0.0497,-0.0504,-0.0544,-0.0524,-0.0519,-0.0577,-0.0503,-0.0587,-0.0591,-0.0531,-0.0527,-0.0524,-0.0439,-0.0428,-0.0577,-0.0577,-0.0577,0,-0.0227,-0.0293,-0.0321,-0.0369,-0.0399,-0.0419,-0.0467,-0.0488,-0.0535,-0.0532,-0.0538,-0.0564,-0.0563,-0.0555,-0.0574,-0.0587,-0.0532,-0.0558,-0.0535,-0.053,-0.0525,-0.044,-0.0426,-0.0579,-0.0579,-0.0579,-0.0579,0,-0.0295,-0.0346,-0.0378,-0.0444,-0.0481,-0.0531,-0.056,-0.0585,-0.0599,-0.0606,-0.062,-0.0625,-0.0621,-0.0629,-0.0622,-0.0593,-0.0557,-0.0557,-0.0504,-0.0525,-0.0435,-0.042,-0.0583,-0.0582,-0.0581,-0.0581,0,0,-0.0307,-0.0405,-0.0415,-0.0447,-0.0523,-0.0557,-0.0598,-0.063,-0.0626,-0.0665,-0.0655,-0.068,-0.066,-0.0654,-0.0636,-0.0587,-0.0514,-0.0559,-0.0555,-0.0457,-0.0352,-0.0365,-0.0349,-0.0503,-0.0501,-0.05,-0.0297,0,-0.0349,-0.0442,-0.0483,-0.0562,-0.061,-0.0632,-0.0663,-0.0683,-0.0692,-0.0689,-0.0665,-0.0668,-0.0673,-0.0663,-0.0619,-0.0545,-0.0479,-0.0567,-0.0363,-0.0356,-0.0349,-0.0334,-0.0494,-0.0285,-0.0282,-0.0279,-0.0277,0,-0.0396,-0.0454,-0.054,-0.0604,-0.0624,-0.0675,-0.0698,-0.0729,-0.0716,-0.0705,-0.0688,-0.0671,-0.0617,-0.0623,-0.0478,-0.0532,-0.0445,-0.0382,-0.0372,-0.0356,-0.0342,-0.0265,-0.0249,-0.0252,-0.0254,-0.0256,-0.0257,0,-0.0383,-0.0485,-0.0551,-0.058,-0.0662,-0.0689,-0.0732,-0.0739,-0.0733,-0.0712,-0.0691,-0.0635,-0.0592,-0.0498,-0.0388,-0.0421,-0.0207,-0.0231,-0.015,-0.0148,-0.0175,-0.0181,-0.011,-0.011,-0.0111,-0.0111,-0.0112,0,-0.0407,-0.0457,-0.0554,-0.0592,-0.0645,-0.0702,-0.0729,-0.0744,-0.0739,-0.0716,-0.0703,-0.0653,-0.0558,-0.0442,-0.0352,-0.0197,-0.0169,-0.0133,-0.0098,-0.0199,-0.021,-0.0163,-0.0172,-0.0104,-0.0105,-0.0107,-0.0108,0,-0.0383,-0.0452,-0.052,-0.0614,-0.0648,-0.0685,-0.0744,-0.0735,-0.0747,-0.0713,-0.0705,-0.0628,-0.0486,-0.0371,-0.0183,-0.0138,0.0001,0.0056,-0.0027,-0.0002,0.0017,0.0003,0.0166,0.0167,0.0168,0.0169,0.0169,0,-0.0382,-0.0422,-0.0522,-0.0552,-0.0605,-0.0667,-0.069,-0.0733,-0.0719,-0.0689,-0.0656,-0.054,-0.0474,-0.0198,-0.0104,0.0092,0.0095,0.0172,0.0051,0.0027,0.0046,0.003,0.0015,0.0171,0.0171,0.0172,0.0172,0,-0.0367,-0.0401,-0.0447,-0.051,-0.0558,-0.0593,-0.0646,-0.0631,-0.0653,-0.0666,-0.0579,-0.0489,-0.0322,-0.0173,-0.0012,0.0109,0.0111,0.0183,0.018,0.0066,0.0035,0.0049,0.0034,0.0175,0.0175,0.0175,0.0174,0,-0.0337,-0.0351,-0.0404,-0.0452,-0.0494,-0.0512,-0.0551,-0.0546,-0.0548,-0.0548,-0.0507,-0.0391,-0.0329,-0.0158,-0.0015,0.0103,0.01,0.0103,0.0104,0.0101,-0.0016,-0.0071,0.0087,0,0,0,0,0,-0.0305,-0.0314,-0.0344,-0.0391,-0.0418,-0.0453,-0.0502,-0.053,-0.0564,-0.0495,-0.051,-0.037,-0.0203,-0.0131,-0.0008,-0.0002,0.0126,0.014,0.0132,0.0195,0.0191,0.0059,0,0,0,0,0,0,-0.0283,-0.0305,-0.0322,-0.032,-0.0333,-0.0366,-0.0395,-0.0428,-0.0398,-0.0428,-0.0323,-0.035,-0.0162,-0.0247,0.0001,0.0028,0.0032,0.0202,0.0203,0.0198,0.0194,0.0191,0.0053,0,0,0,0,0]}]]